Change the Weather History Date:

Tuesday, October 29, 2013

  Actual Average Record
Temperature  
Mean Temperature 56 °F -  
Max Temperature 60 °F 71 °F 85 °F (1995)
Min Temperature 51 °F 46 °F 36 °F (2006)
Degree Days  
Heating Degree Days 9    
Cooling Degree Days 0    
Growing Degree Days 4 (Base 50)    
Moisture  
Dew Point 43 °F    
Average Humidity 68    
Maximum Humidity 83    
Minimum Humidity 53    
Precipitation  
Precipitation T in 0.11 in 3.88 in (1992)
Month to date precipitation 0.01 1.88  
Year to date precipitation 10.70 23.65  
Since 1 July precipitation 1.40 2.79  
Sea Level Pressure  
Sea Level Pressure 29.97 in    
Wind  
Wind Speed 3 mph (East)    
Max Wind Speed 9 mph    
Max Gust Speed 14 mph    
Visibility 10 miles    
Events      
T = Trace of Precipitation, MM = Missing Value Source: NWS Daily Summary

Daily Weather History Graph

Daily Weather History Graph

Search for Another Location

Airport or City:

Trip Planner

Search our weather history database for the weather conditions in past years. The results will help you decide how hot, cold, wet, or windy it might be!

Date:

Astronomy

Oct. 29, 2013 Rise Set
Actual Time 7:36 AM PDT 6:09 PM PDT
Civil Twilight 7:07 AM PDT 6:37 PM PDT
Nautical Twilight 6:35 AM PDT 7:09 PM PDT
Astronomical Twilight 6:04 AM PDT 7:41 PM PDT
Moon 2:30 AM PDT (10/29) 3:26 PM PDT (10/29)
Length of Visible Light 11h 29m
Length of Day
10h 32m
Waning Crescent, 24% of the Moon is Illuminated
Oct 29
Waning Crescent
Nov 3
New
Nov 9
First Quarter
Nov 17
Full
Nov 25
Last Quarter

Hourly Weather History & Observations

Time (PDT) Temp. Dew Point Humidity Pressure Visibility Wind Dir Wind Speed Gust Speed Precip Events Conditions
12:53 AM 52.0 °F 42.1 °F 69% 29.86 in 10.0 mi North 3.5 mph - N/A   Overcast
1:53 AM 52.0 °F 41.0 °F 66% 29.87 in 10.0 mi Calm Calm - 0.00 in   Overcast
2:53 AM 52.0 °F 42.1 °F 69% 29.88 in 10.0 mi Calm Calm - N/A   Overcast
3:53 AM 52.0 °F 41.0 °F 66% 29.88 in 10.0 mi North 4.6 mph - N/A   Overcast
4:53 AM 52.0 °F 39.9 °F 63% 29.90 in 10.0 mi NE 4.6 mph - N/A   Overcast
5:53 AM 52.0 °F 39.9 °F 63% 29.91 in 10.0 mi Calm Calm - N/A   Overcast
6:53 AM 52.0 °F 41.0 °F 66% 29.93 in 10.0 mi NNE 4.6 mph - N/A   Overcast
7:53 AM 52.0 °F 41.0 °F 66% 29.95 in 10.0 mi NE 3.5 mph - N/A   Overcast
8:53 AM 52.0 °F 39.9 °F 63% 29.97 in 10.0 mi Calm Calm - N/A   Overcast
9:29 AM 51.8 °F 42.8 °F 71% 29.99 in 10.0 mi Calm Calm - N/A   Overcast
9:53 AM 53.1 °F 43.0 °F 69% 29.99 in 10.0 mi Calm Calm - N/A   Overcast
10:27 AM 51.8 °F 46.4 °F 82% 29.99 in 10.0 mi SSE 6.9 mph - N/A   Overcast
10:53 AM 52.0 °F 46.0 °F 80% 29.99 in 10.0 mi SE 3.5 mph - N/A   Overcast
11:53 AM 54.0 °F 46.9 °F 77% 30.00 in 10.0 mi Calm Calm - N/A   Overcast
12:53 PM 55.0 °F 46.0 °F 72% 29.99 in 10.0 mi SSE 6.9 mph - N/A   Overcast
1:53 PM 57.9 °F 44.1 °F 60% 29.98 in 10.0 mi South 6.9 mph - N/A   Partly Cloudy
2:53 PM 60.1 °F 44.1 °F 55% 29.97 in 10.0 mi Variable 4.6 mph - N/A   Clear
3:53 PM 59.0 °F 44.1 °F 58% 29.97 in 10.0 mi Variable 3.5 mph - N/A   Clear
4:53 PM 59.0 °F 43.0 °F 55% 29.98 in 10.0 mi South 4.6 mph - N/A   Partly Cloudy
5:53 PM 57.9 °F 44.1 °F 60% 29.99 in 10.0 mi SSE 4.6 mph - N/A   Overcast
6:53 PM 57.0 °F 44.1 °F 62% 30.00 in 10.0 mi SSE 3.5 mph - N/A   Overcast
7:53 PM 57.0 °F 44.1 °F 62% 30.01 in 10.0 mi Calm Calm - N/A   Overcast
8:53 PM 52.0 °F 43.0 °F 71% 30.03 in 10.0 mi NNE 3.5 mph - N/A   Clear
9:53 PM 50.0 °F 43.0 °F 77% 30.05 in 10.0 mi Calm Calm - N/A   Scattered Clouds
10:53 PM 48.9 °F 42.1 °F 77% 30.06 in 10.0 mi Calm Calm - N/A   Partly Cloudy
11:53 PM 48.9 °F 42.1 °F 77% 30.06 in 10.0 mi Calm Calm - N/A   Overcast